owner,sensor,date,latitude,longitude,air_pressure(mBar),qcFlag 
TABS,ioos:station:wmo:42045:1,2012-10-01T00:00:00Z,26.2168,-96.4998,1007.75,11111222 
TABS,ioos:station:wmo:42045:1,2012-10-01T00:30:00Z,26.2168,-96.4998,1008.32,11111222 
TABS,ioos:station:wmo:42045:1,2012-10-01T01:00:00Z,26.2168,-96.4998,1008.45,11111222 
TABS,ioos:station:wmo:42045:1,2012-10-01T01:30:00Z,26.2168,-96.4998,1008.56,11111222 
TABS,ioos:station:wmo:42045:1,2012-10-01T02:00:00Z,26.2168,-96.4998,1008.91,11111222 
TABS,ioos:station:wmo:42045:1,2012-10-01T02:30:00Z,26.2168,-96.4998,1008.88,11111222 
TABS,ioos:station:wmo:42045:1,2012-10-01T03:00:00Z,26.2168,-96.4998,1009.36,11111222 
TABS,ioos:station:wmo:42045:1,2012-10-01T03:30:00Z,26.2168,-96.4998,1009.51,11111222 
TABS,ioos:station:wmo:42045:1,2012-10-01T04:00:00Z,26.2168,-96.4998,1009.56,11111222 
TABS,ioos:station:wmo:42045:1,2012-10-01T04:30:00Z,26.2168,-96.4998,1009.59,11111222 
TABS,ioos:station:wmo:42045:1,2012-10-01T05:00:00Z,26.2168,-96.4998,1009.58,11111222 
TABS,ioos:station:wmo:42045:1,2012-10-01T05:30:00Z,26.2168,-96.4998,1009.42,11111222 
TABS,ioos:station:wmo:42045:1,2012-10-01T06:00:00Z,26.2168,-96.4998,1009.47,11111222 
TABS,ioos:station:wmo:42045:1,2012-10-01T06:30:00Z,26.2168,-96.4998,1009.48,11111222 
TABS,ioos:station:wmo:42045:1,2012-10-01T07:00:00Z,26.2168,-96.4998,1009.61,11111222 
TABS,ioos:station:wmo:42045:1,2012-10-01T07:30:00Z,26.2168,-96.4998,1009.46,11111222 
TABS,ioos:station:wmo:42045:1,2012-10-01T08:00:00Z,26.2168,-96.4998,1009.45,11111222 
TABS,ioos:station:wmo:42045:1,2012-10-01T08:30:00Z,26.2168,-96.4998,1009.3,11111222 
TABS,ioos:station:wmo:42045:1,2012-10-01T09:00:00Z,26.2168,-96.4998,1009.05,11111222 
TABS,ioos:station:wmo:42045:1,2012-10-01T09:30:00Z,26.2168,-96.4998,1009.32,11111222 
TABS,ioos:station:wmo:42045:1,2012-10-01T10:00:00Z,26.2168,-96.4998,1009.52,11111222 
TABS,ioos:station:wmo:42045:1,2012-10-01T10:30:00Z,26.2168,-96.4998,1009.59,11111222 
TABS,ioos:station:wmo:42045:1,2012-10-01T11:00:00Z,26.2168,-96.4998,1009.94,11111222 
TABS,ioos:station:wmo:42045:1,2012-10-01T11:30:00Z,26.2168,-96.4998,1010.17,11111222 
TABS,ioos:station:wmo:42045:1,2012-10-01T12:00:00Z,26.2168,-96.4998,1010.27,11111222 
TABS,ioos:station:wmo:42045:1,2012-10-01T12:30:00Z,26.2168,-96.4998,1010.54,11111222 
TABS,ioos:station:wmo:42045:1,2012-10-01T13:00:00Z,26.2168,-96.4998,1010.94,11111222 
TABS,ioos:station:wmo:42045:1,2012-10-01T13:30:00Z,26.2168,-96.4998,1011.38,11111222 
TABS,ioos:station:wmo:42045:1,2012-10-01T14:00:00Z,26.2168,-96.4998,1011.72,11111222 
TABS,ioos:station:wmo:42045:1,2012-10-01T14:30:00Z,26.2168,-96.4998,1011.95,11111222 
TABS,ioos:station:wmo:42045:1,2012-10-01T15:00:00Z,26.2168,-96.4998,1012.31,11111222 
TABS,ioos:station:wmo:42045:1,2012-10-01T15:30:00Z,26.2168,-96.4998,1012.23,11111222 
TABS,ioos:station:wmo:42045:1,2012-10-01T16:00:00Z,26.2168,-96.4998,1012.25,11111222 
TABS,ioos:station:wmo:42045:1,2012-10-01T16:30:00Z,26.2168,-96.4998,1012.19,11111222 
TABS,ioos:station:wmo:42045:1,2012-10-01T17:00:00Z,26.2168,-96.4998,1012.21,11111222 
TABS,ioos:station:wmo:42045:1,2012-10-01T17:30:00Z,26.2168,-96.4998,1011.96,11111222 
TABS,ioos:station:wmo:42045:1,2012-10-01T18:00:00Z,26.2168,-96.4998,1011.79,11111222 
TABS,ioos:station:wmo:42045:1,2012-10-01T18:30:00Z,26.2168,-96.4998,1011.54,11111222 
TABS,ioos:station:wmo:42045:1,2012-10-01T19:00:00Z,26.2168,-96.4998,1011.11,11111222 
TABS,ioos:station:wmo:42045:1,2012-10-01T19:30:00Z,26.2168,-96.4998,1010.87,11111222 
TABS,ioos:station:wmo:42045:1,2012-10-01T20:00:00Z,26.2168,-96.4998,1010.86,11111222 
TABS,ioos:station:wmo:42045:1,2012-10-01T20:30:00Z,26.2168,-96.4998,1010.49,11111222 
TABS,ioos:station:wmo:42045:1,2012-10-01T21:00:00Z,26.2168,-96.4998,1010.51,11111222 
TABS,ioos:station:wmo:42045:1,2012-10-01T21:30:00Z,26.2168,-96.4998,1010.34,11111222 
TABS,ioos:station:wmo:42045:1,2012-10-01T22:00:00Z,26.2168,-96.4998,1010.2,11111222 
TABS,ioos:station:wmo:42045:1,2012-10-01T22:30:00Z,26.2168,-96.4998,1010.03,11111222 
TABS,ioos:station:wmo:42045:1,2012-10-01T23:00:00Z,26.2168,-96.4998,1010.2,11111222 
TABS,ioos:station:wmo:42045:1,2012-10-01T23:30:00Z,26.2168,-96.4998,1010.42,11111222 
TABS,ioos:station:wmo:42045:1,2012-10-02T00:00:00Z,26.2168,-96.4998,1010.08,11111222 
TABS,ioos:station:wmo:42045:1,2012-10-02T00:30:00Z,26.2168,-96.4998,1010.13,11111222 
TABS,ioos:station:wmo:42045:1,2012-10-02T01:00:00Z,26.2168,-96.4998,1010.29,11111222 
TABS,ioos:station:wmo:42045:1,2012-10-02T01:30:00Z,26.2168,-96.4998,1010.54,11111222 
TABS,ioos:station:wmo:42045:1,2012-10-02T02:00:00Z,26.2168,-96.4998,1010.95,11111222 
TABS,ioos:station:wmo:42045:1,2012-10-02T02:30:00Z,26.2168,-96.4998,1011.15,11111222 
TABS,ioos:station:wmo:42045:1,2012-10-02T03:00:00Z,26.2168,-96.4998,1011.61,11111222 
TABS,ioos:station:wmo:42045:1,2012-10-02T03:30:00Z,26.2168,-96.4998,1011.88,11111222 
TABS,ioos:station:wmo:42045:1,2012-10-02T04:00:00Z,26.2168,-96.4998,1012.15,11111222 
TABS,ioos:station:wmo:42045:1,2012-10-02T04:30:00Z,26.2168,-96.4998,1012.22,11111222 
TABS,ioos:station:wmo:42045:1,2012-10-02T05:00:00Z,26.2168,-96.4998,1012.43,11111222 
TABS,ioos:station:wmo:42045:1,2012-10-02T05:30:00Z,26.2168,-96.4998,1012.32,11111222 
TABS,ioos:station:wmo:42045:1,2012-10-02T06:00:00Z,26.2168,-96.4998,1012.34,11111222 
TABS,ioos:station:wmo:42045:1,2012-10-02T06:30:00Z,26.2168,-96.4998,1012.42,11111222 
TABS,ioos:station:wmo:42045:1,2012-10-02T07:00:00Z,26.2168,-96.4998,1012.29,11111222 
TABS,ioos:station:wmo:42045:1,2012-10-02T07:30:00Z,26.2168,-96.4998,1012.32,11111222 
TABS,ioos:station:wmo:42045:1,2012-10-02T08:00:00Z,26.2168,-96.4998,1012.33,11111222 
TABS,ioos:station:wmo:42045:1,2012-10-02T08:30:00Z,26.2168,-96.4998,1012.02,11111222 
TABS,ioos:station:wmo:42045:1,2012-10-02T09:00:00Z,26.2168,-96.4998,1011.87,11111222 
TABS,ioos:station:wmo:42045:1,2012-10-02T09:30:00Z,26.2168,-96.4998,1011.84,11111222 
TABS,ioos:station:wmo:42045:1,2012-10-02T10:00:00Z,26.2168,-96.4998,1011.92,11111222 
TABS,ioos:station:wmo:42045:1,2012-10-02T10:30:00Z,26.2168,-96.4998,1012.18,11111222 
TABS,ioos:station:wmo:42045:1,2012-10-02T11:00:00Z,26.2168,-96.4998,1012.35,11111222 
TABS,ioos:station:wmo:42045:1,2012-10-02T11:30:00Z,26.2168,-96.4998,1012.74,11111222 
TABS,ioos:station:wmo:42045:1,2012-10-02T12:00:00Z,26.2168,-96.4998,1013.04,11111222 
TABS,ioos:station:wmo:42045:1,2012-10-02T12:30:00Z,26.2168,-96.4998,1013.09,11111222 
TABS,ioos:station:wmo:42045:1,2012-10-02T13:00:00Z,26.2168,-96.4998,1013.45,11111222 
TABS,ioos:station:wmo:42045:1,2012-10-02T13:30:00Z,26.2168,-96.4998,1013.61,11111222 
TABS,ioos:station:wmo:42045:1,2012-10-02T14:00:00Z,26.2168,-96.4998,1014.01,11111222 
TABS,ioos:station:wmo:42045:1,2012-10-02T14:30:00Z,26.2168,-96.4998,1014.22,11111222 
TABS,ioos:station:wmo:42045:1,2012-10-02T15:00:00Z,26.2168,-96.4998,1014.48,11111222 
TABS,ioos:station:wmo:42045:1,2012-10-02T15:30:00Z,26.2168,-96.4998,1014.57,11111222 
TABS,ioos:station:wmo:42045:1,2012-10-02T16:00:00Z,26.2168,-96.4998,1014.55,11111222 
TABS,ioos:station:wmo:42045:1,2012-10-02T16:30:00Z,26.2168,-96.4998,1014.63,11111222 
TABS,ioos:station:wmo:42045:1,2012-10-02T17:00:00Z,26.2168,-96.4998,1014.62,11111222 
TABS,ioos:station:wmo:42045:1,2012-10-02T17:30:00Z,26.2168,-96.4998,1014.32,11111222 
TABS,ioos:station:wmo:42045:1,2012-10-02T18:00:00Z,26.2168,-96.4998,1014.01,11111222 
TABS,ioos:station:wmo:42045:1,2012-10-02T18:30:00Z,26.2168,-96.4998,1013.57,11111222 
TABS,ioos:station:wmo:42045:1,2012-10-02T19:00:00Z,26.2168,-96.4998,1013.28,11111222 
TABS,ioos:station:wmo:42045:1,2012-10-02T19:30:00Z,26.2168,-96.4998,1013.03,11111222 
TABS,ioos:station:wmo:42045:1,2012-10-02T20:00:00Z,26.2168,-96.4998,1012.56,11111222 
TABS,ioos:station:wmo:42045:1,2012-10-02T20:30:00Z,26.2168,-96.4998,1012.47,11111222 
TABS,ioos:station:wmo:42045:1,2012-10-02T21:00:00Z,26.2168,-96.4998,1012.52,11111222 
TABS,ioos:station:wmo:42045:1,2012-10-02T21:30:00Z,26.2168,-96.4998,1012.37,11111222 
TABS,ioos:station:wmo:42045:1,2012-10-02T22:00:00Z,26.2168,-96.4998,1012.25,11111222 
TABS,ioos:station:wmo:42045:1,2012-10-02T22:30:00Z,26.2168,-96.4998,1012.33,11111222 
TABS,ioos:station:wmo:42045:1,2012-10-02T23:00:00Z,26.2168,-96.4998,1012.37,11111222 
TABS,ioos:station:wmo:42045:1,2012-10-02T23:30:00Z,26.2168,-96.4998,1012.76,11111222 
TABS,ioos:station:wmo:42045:1,2012-10-03T00:00:00Z,26.2168,-96.4998,1013.02,11111222 
TABS,ioos:station:wmo:42045:1,2012-10-03T00:30:00Z,26.2168,-96.4998,1013.25,11111222 
TABS,ioos:station:wmo:42045:1,2012-10-03T01:00:00Z,26.2168,-96.4998,1013.67,11111222 
TABS,ioos:station:wmo:42045:1,2012-10-03T01:30:00Z,26.2168,-96.4998,1014.18,11111222 
TABS,ioos:station:wmo:42045:1,2012-10-03T02:00:00Z,26.2168,-96.4998,1014.56,11111222 
TABS,ioos:station:wmo:42045:1,2012-10-03T02:30:00Z,26.2168,-96.4998,1014.79,11111222 
TABS,ioos:station:wmo:42045:1,2012-10-03T03:00:00Z,26.2168,-96.4998,1015.28,11111222 
TABS,ioos:station:wmo:42045:1,2012-10-03T03:30:00Z,26.2168,-96.4998,1015.38,11111222 
TABS,ioos:station:wmo:42045:1,2012-10-03T04:00:00Z,26.2168,-96.4998,1015.52,11111222 
TABS,ioos:station:wmo:42045:1,2012-10-03T04:30:00Z,26.2168,-96.4998,1015.57,11111222 
TABS,ioos:station:wmo:42045:1,2012-10-03T05:00:00Z,26.2168,-96.4998,1015.45,11111222 
TABS,ioos:station:wmo:42045:1,2012-10-03T05:30:00Z,26.2168,-96.4998,1015.28,11111222 
TABS,ioos:station:wmo:42045:1,2012-10-03T06:00:00Z,26.2168,-96.4998,1015.24,11111222 
TABS,ioos:station:wmo:42045:1,2012-10-03T06:30:00Z,26.2168,-96.4998,1015.13,11111222 
TABS,ioos:station:wmo:42045:1,2012-10-03T07:00:00Z,26.2168,-96.4998,1015.07,11111222 
TABS,ioos:station:wmo:42045:1,2012-10-03T07:30:00Z,26.2168,-96.4998,1014.83,11111222 
TABS,ioos:station:wmo:42045:1,2012-10-03T08:00:00Z,26.2168,-96.4998,1014.65,11111222 
TABS,ioos:station:wmo:42045:1,2012-10-03T08:30:00Z,26.2168,-96.4998,1014.45,11111222 
TABS,ioos:station:wmo:42045:1,2012-10-03T09:00:00Z,26.2168,-96.4998,1014.45,11111222 
TABS,ioos:station:wmo:42045:1,2012-10-03T09:30:00Z,26.2168,-96.4998,1014.42,11111222 
TABS,ioos:station:wmo:42045:1,2012-10-03T10:00:00Z,26.2168,-96.4998,1014.77,11111222 
TABS,ioos:station:wmo:42045:1,2012-10-03T10:30:00Z,26.2168,-96.4998,1014.94,11111222 
TABS,ioos:station:wmo:42045:1,2012-10-03T11:00:00Z,26.2168,-96.4998,1015.03,11111222 
TABS,ioos:station:wmo:42045:1,2012-10-03T11:30:00Z,26.2168,-96.4998,1015.15,11111222 
TABS,ioos:station:wmo:42045:1,2012-10-03T12:00:00Z,26.2168,-96.4998,1015.22,11111222 
TABS,ioos:station:wmo:42045:1,2012-10-03T12:30:00Z,26.2168,-96.4998,1015.28,11111222 
TABS,ioos:station:wmo:42045:1,2012-10-03T13:00:00Z,26.2168,-96.4998,1015.28,11111222 
TABS,ioos:station:wmo:42045:1,2012-10-03T13:30:00Z,26.2168,-96.4998,1015.49,11111222 
TABS,ioos:station:wmo:42045:1,2012-10-03T14:00:00Z,26.2168,-96.4998,1015.82,11111222 
TABS,ioos:station:wmo:42045:1,2012-10-03T14:30:00Z,26.2168,-96.4998,1016.2,11111222 
TABS,ioos:station:wmo:42045:1,2012-10-03T15:00:00Z,26.2168,-96.4998,1016.51,11111222 
TABS,ioos:station:wmo:42045:1,2012-10-03T15:30:00Z,26.2168,-96.4998,1016.65,11111222 
TABS,ioos:station:wmo:42045:1,2012-10-03T16:00:00Z,26.2168,-96.4998,1016.68,11111222 
TABS,ioos:station:wmo:42045:1,2012-10-03T16:30:00Z,26.2168,-96.4998,1016.72,11111222 
TABS,ioos:station:wmo:42045:1,2012-10-03T17:00:00Z,26.2168,-96.4998,1016.57,11111222 
TABS,ioos:station:wmo:42045:1,2012-10-03T17:30:00Z,26.2168,-96.4998,1016.44,11111222 
TABS,ioos:station:wmo:42045:1,2012-10-03T18:00:00Z,26.2168,-96.4998,1015.95,11111222 
TABS,ioos:station:wmo:42045:1,2012-10-03T18:30:00Z,26.2168,-96.4998,1015.55,11111222 
TABS,ioos:station:wmo:42045:1,2012-10-03T19:00:00Z,26.2168,-96.4998,1015.34,11111222 
TABS,ioos:station:wmo:42045:1,2012-10-03T19:30:00Z,26.2168,-96.4998,1014.87,11111222 
TABS,ioos:station:wmo:42045:1,2012-10-03T20:00:00Z,26.2168,-96.4998,1014.56,11111222 
TABS,ioos:station:wmo:42045:1,2012-10-03T20:30:00Z,26.2168,-96.4998,1014.47,11111222 
TABS,ioos:station:wmo:42045:1,2012-10-03T21:00:00Z,26.2168,-96.4998,1014.44,11111222 
TABS,ioos:station:wmo:42045:1,2012-10-03T21:30:00Z,26.2168,-96.4998,1014.34,11111222 
TABS,ioos:station:wmo:42045:1,2012-10-03T22:00:00Z,26.2168,-96.4998,1014.27,11111222 
TABS,ioos:station:wmo:42045:1,2012-10-03T22:30:00Z,26.2168,-96.4998,1014.28,11111222 
TABS,ioos:station:wmo:42045:1,2012-10-03T23:00:00Z,26.2168,-96.4998,1014.4,11111222 
TABS,ioos:station:wmo:42045:1,2012-10-03T23:30:00Z,26.2168,-96.4998,1014.3,11111222 
TABS,ioos:station:wmo:42045:1,2012-10-04T00:00:00Z,26.2168,-96.4998,1014.69,11111222 
TABS,ioos:station:wmo:42045:1,2012-10-04T00:30:00Z,26.2168,-96.4998,1014.92,11111222 
TABS,ioos:station:wmo:42045:1,2012-10-04T01:00:00Z,26.2168,-96.4998,1015.07,11111222 
TABS,ioos:station:wmo:42045:1,2012-10-04T01:30:00Z,26.2168,-96.4998,1015.2,11111222 
TABS,ioos:station:wmo:42045:1,2012-10-04T02:00:00Z,26.2168,-96.4998,1015.58,11111222 
TABS,ioos:station:wmo:42045:1,2012-10-04T02:30:00Z,26.2168,-96.4998,1015.9,11111222 
TABS,ioos:station:wmo:42045:1,2012-10-04T03:00:00Z,26.2168,-96.4998,1016.09,11111222 
TABS,ioos:station:wmo:42045:1,2012-10-04T03:30:00Z,26.2168,-96.4998,1016.37,11111222 
TABS,ioos:station:wmo:42045:1,2012-10-04T04:00:00Z,26.2168,-96.4998,1016.69,11111222 
TABS,ioos:station:wmo:42045:1,2012-10-04T04:30:00Z,26.2168,-96.4998,1016.63,11111222 
TABS,ioos:station:wmo:42045:1,2012-10-04T05:00:00Z,26.2168,-96.4998,1016.77,11111222 
TABS,ioos:station:wmo:42045:1,2012-10-04T05:30:00Z,26.2168,-96.4998,1016.67,11111222 
TABS,ioos:station:wmo:42045:1,2012-10-04T06:00:00Z,26.2168,-96.4998,1016.51,11111222 
TABS,ioos:station:wmo:42045:1,2012-10-04T06:30:00Z,26.2168,-96.4998,1016.82,11111222 
TABS,ioos:station:wmo:42045:1,2012-10-04T07:00:00Z,26.2168,-96.4998,1016.37,11111222 
TABS,ioos:station:wmo:42045:1,2012-10-04T07:30:00Z,26.2168,-96.4998,1016.6,11111222 
TABS,ioos:station:wmo:42045:1,2012-10-04T08:00:00Z,26.2168,-96.4998,1016.44,11111222 
TABS,ioos:station:wmo:42045:1,2012-10-04T08:30:00Z,26.2168,-96.4998,1016.24,11111222 
TABS,ioos:station:wmo:42045:1,2012-10-04T09:00:00Z,26.2168,-96.4998,1016.48,11111222 
TABS,ioos:station:wmo:42045:1,2012-10-04T09:30:00Z,26.2168,-96.4998,1016.5,11111222 
TABS,ioos:station:wmo:42045:1,2012-10-04T10:00:00Z,26.2168,-96.4998,1016.47,11111222 
TABS,ioos:station:wmo:42045:1,2012-10-04T10:30:00Z,26.2168,-96.4998,1016.81,11111222 
TABS,ioos:station:wmo:42045:1,2012-10-04T11:00:00Z,26.2168,-96.4998,1016.95,11111222 
TABS,ioos:station:wmo:42045:1,2012-10-04T11:30:00Z,26.2168,-96.4998,1017.09,11111222 
TABS,ioos:station:wmo:42045:1,2012-10-04T12:00:00Z,26.2168,-96.4998,1017.17,11111222 
TABS,ioos:station:wmo:42045:1,2012-10-04T12:30:00Z,26.2168,-96.4998,1017.5,11111222 
TABS,ioos:station:wmo:42045:1,2012-10-04T13:00:00Z,26.2168,-96.4998,1017.72,11111222 
TABS,ioos:station:wmo:42045:1,2012-10-04T13:30:00Z,26.2168,-96.4998,1017.99,11111222 
TABS,ioos:station:wmo:42045:1,2012-10-04T14:00:00Z,26.2168,-96.4998,1018.38,11111222 
TABS,ioos:station:wmo:42045:1,2012-10-04T14:30:00Z,26.2168,-96.4998,1018.81,11111222 
TABS,ioos:station:wmo:42045:1,2012-10-04T15:00:00Z,26.2168,-96.4998,1018.99,11111222 
TABS,ioos:station:wmo:42045:1,2012-10-04T15:30:00Z,26.2168,-96.4998,1019.24,11111222 
TABS,ioos:station:wmo:42045:1,2012-10-04T16:00:00Z,26.2168,-96.4998,1019.22,11111222 
TABS,ioos:station:wmo:42045:1,2012-10-04T16:30:00Z,26.2168,-96.4998,1019.34,11111222 
TABS,ioos:station:wmo:42045:1,2012-10-04T17:00:00Z,26.2168,-96.4998,1019.17,11111222 
TABS,ioos:station:wmo:42045:1,2012-10-04T17:30:00Z,26.2168,-96.4998,1019.24,11111222 
TABS,ioos:station:wmo:42045:1,2012-10-04T18:00:00Z,26.2168,-96.4998,1019.0,11111222 
TABS,ioos:station:wmo:42045:1,2012-10-04T18:30:00Z,26.2168,-96.4998,1018.82,11111222 
TABS,ioos:station:wmo:42045:1,2012-10-04T19:00:00Z,26.2168,-96.4998,1018.38,11111222 
TABS,ioos:station:wmo:42045:1,2012-10-04T19:30:00Z,26.2168,-96.4998,1018.24,11111222 
TABS,ioos:station:wmo:42045:1,2012-10-04T20:00:00Z,26.2168,-96.4998,1018.17,11111222 
TABS,ioos:station:wmo:42045:1,2012-10-04T20:30:00Z,26.2168,-96.4998,1018.14,11111222 
TABS,ioos:station:wmo:42045:1,2012-10-04T21:00:00Z,26.2168,-96.4998,1018.15,11111222 
TABS,ioos:station:wmo:42045:1,2012-10-04T21:30:00Z,26.2168,-96.4998,1018.15,11111222 
TABS,ioos:station:wmo:42045:1,2012-10-04T22:00:00Z,26.2168,-96.4998,1018.04,11111222 
TABS,ioos:station:wmo:42045:1,2012-10-04T22:30:00Z,26.2168,-96.4998,1018.06,11111222 
TABS,ioos:station:wmo:42045:1,2012-10-04T23:00:00Z,26.2168,-96.4998,1018.07,11111222 
TABS,ioos:station:wmo:42045:1,2012-10-04T23:30:00Z,26.2168,-96.4998,1018.04,11111222 
TABS,ioos:station:wmo:42045:1,2012-10-05T00:00:00Z,26.2168,-96.4998,1018.06,11111222 
TABS,ioos:station:wmo:42045:1,2012-10-05T00:30:00Z,26.2168,-96.4998,1018.21,11111222 
TABS,ioos:station:wmo:42045:1,2012-10-05T01:00:00Z,26.2168,-96.4998,1018.1,11111222 
TABS,ioos:station:wmo:42045:1,2012-10-05T01:30:00Z,26.2168,-96.4998,1018.2,11111222 
TABS,ioos:station:wmo:42045:1,2012-10-05T02:00:00Z,26.2168,-96.4998,1018.53,11111222 
TABS,ioos:station:wmo:42045:1,2012-10-05T02:30:00Z,26.2168,-96.4998,1018.85,11111222 
TABS,ioos:station:wmo:42045:1,2012-10-05T03:00:00Z,26.2168,-96.4998,1019.04,11111222 
TABS,ioos:station:wmo:42045:1,2012-10-05T03:30:00Z,26.2168,-96.4998,1019.24,11111222 
TABS,ioos:station:wmo:42045:1,2012-10-05T04:00:00Z,26.2168,-96.4998,1019.2,11111222 
TABS,ioos:station:wmo:42045:1,2012-10-05T04:30:00Z,26.2168,-96.4998,1019.11,11111222 
TABS,ioos:station:wmo:42045:1,2012-10-05T05:00:00Z,26.2168,-96.4998,1019.11,11111222 
TABS,ioos:station:wmo:42045:1,2012-10-05T05:30:00Z,26.2168,-96.4998,1018.92,11111222 
TABS,ioos:station:wmo:42045:1,2012-10-05T06:00:00Z,26.2168,-96.4998,1018.74,11111222 
TABS,ioos:station:wmo:42045:1,2012-10-05T06:30:00Z,26.2168,-96.4998,1018.42,11111222 
TABS,ioos:station:wmo:42045:1,2012-10-05T07:00:00Z,26.2168,-96.4998,1018.24,11111222 
TABS,ioos:station:wmo:42045:1,2012-10-05T07:30:00Z,26.2168,-96.4998,1018.02,11111222 
TABS,ioos:station:wmo:42045:1,2012-10-05T08:00:00Z,26.2168,-96.4998,1017.62,11111222 
TABS,ioos:station:wmo:42045:1,2012-10-05T08:30:00Z,26.2168,-96.4998,1017.2,11111222 
TABS,ioos:station:wmo:42045:1,2012-10-05T09:00:00Z,26.2168,-96.4998,1017.12,11111222 
TABS,ioos:station:wmo:42045:1,2012-10-05T09:30:00Z,26.2168,-96.4998,1017.3,11111222 
TABS,ioos:station:wmo:42045:1,2012-10-05T10:00:00Z,26.2168,-96.4998,1017.42,11111222 
TABS,ioos:station:wmo:42045:1,2012-10-05T10:30:00Z,26.2168,-96.4998,1017.72,11111222 
TABS,ioos:station:wmo:42045:1,2012-10-05T11:00:00Z,26.2168,-96.4998,1017.82,11111222 
TABS,ioos:station:wmo:42045:1,2012-10-05T11:30:00Z,26.2168,-96.4998,1018.06,11111222 
TABS,ioos:station:wmo:42045:1,2012-10-05T12:00:00Z,26.2168,-96.4998,1018.13,11111222 
TABS,ioos:station:wmo:42045:1,2012-10-05T12:30:00Z,26.2168,-96.4998,1018.3,11111222 
TABS,ioos:station:wmo:42045:1,2012-10-05T13:00:00Z,26.2168,-96.4998,1018.47,11111222 
TABS,ioos:station:wmo:42045:1,2012-10-05T13:30:00Z,26.2168,-96.4998,1018.62,11111222 
TABS,ioos:station:wmo:42045:1,2012-10-05T14:00:00Z,26.2168,-96.4998,1018.93,11111222 
TABS,ioos:station:wmo:42045:1,2012-10-05T14:30:00Z,26.2168,-96.4998,1018.91,11111222 
TABS,ioos:station:wmo:42045:1,2012-10-05T15:00:00Z,26.2168,-96.4998,1019.1,11111222 
TABS,ioos:station:wmo:42045:1,2012-10-05T15:30:00Z,26.2168,-96.4998,1019.17,11111222 
TABS,ioos:station:wmo:42045:1,2012-10-05T16:00:00Z,26.2168,-96.4998,1019.22,11111222 
TABS,ioos:station:wmo:42045:1,2012-10-05T16:30:00Z,26.2168,-96.4998,1019.31,11111222 
TABS,ioos:station:wmo:42045:1,2012-10-05T17:00:00Z,26.2168,-96.4998,1019.07,11111222 
TABS,ioos:station:wmo:42045:1,2012-10-05T17:30:00Z,26.2168,-96.4998,1018.7,11111222 
TABS,ioos:station:wmo:42045:1,2012-10-05T18:00:00Z,26.2168,-96.4998,1018.29,11111222 
TABS,ioos:station:wmo:42045:1,2012-10-05T18:30:00Z,26.2168,-96.4998,1017.69,11111222 
TABS,ioos:station:wmo:42045:1,2012-10-05T19:00:00Z,26.2168,-96.4998,1017.07,11111222 
TABS,ioos:station:wmo:42045:1,2012-10-05T19:30:00Z,26.2168,-96.4998,1016.59,11111222 
TABS,ioos:station:wmo:42045:1,2012-10-05T20:00:00Z,26.2168,-96.4998,1016.11,11111222 
TABS,ioos:station:wmo:42045:1,2012-10-05T20:30:00Z,26.2168,-96.4998,1015.92,11111222 
TABS,ioos:station:wmo:42045:1,2012-10-05T21:00:00Z,26.2168,-96.4998,1015.75,11111222 
TABS,ioos:station:wmo:42045:1,2012-10-05T21:30:00Z,26.2168,-96.4998,1015.58,11111222 
TABS,ioos:station:wmo:42045:1,2012-10-05T22:00:00Z,26.2168,-96.4998,1015.47,11111222 
TABS,ioos:station:wmo:42045:1,2012-10-05T22:30:00Z,26.2168,-96.4998,1015.34,11111222 
TABS,ioos:station:wmo:42045:1,2012-10-05T23:00:00Z,26.2168,-96.4998,1015.34,11111222 
TABS,ioos:station:wmo:42045:1,2012-10-05T23:30:00Z,26.2168,-96.4998,1015.27,11111222 
TABS,ioos:station:wmo:42045:1,2012-10-06T00:00:00Z,26.2168,-96.4998,1015.26,11111222 
TABS,ioos:station:wmo:42045:1,2012-10-06T00:30:00Z,26.2168,-96.4998,1015.4,11111222 
TABS,ioos:station:wmo:42045:1,2012-10-06T01:00:00Z,26.2168,-96.4998,1015.54,11111222 
TABS,ioos:station:wmo:42045:1,2012-10-06T01:30:00Z,26.2168,-96.4998,1015.45,11111222 
TABS,ioos:station:wmo:42045:1,2012-10-06T02:00:00Z,26.2168,-96.4998,1015.65,11111222 
TABS,ioos:station:wmo:42045:1,2012-10-06T02:30:00Z,26.2168,-96.4998,1015.71,11111222 
TABS,ioos:station:wmo:42045:1,2012-10-06T03:00:00Z,26.2168,-96.4998,1015.84,11111222 
TABS,ioos:station:wmo:42045:1,2012-10-06T03:30:00Z,26.2168,-96.4998,1015.78,11111222 
TABS,ioos:station:wmo:42045:1,2012-10-06T04:00:00Z,26.2168,-96.4998,1015.77,11111222 
TABS,ioos:station:wmo:42045:1,2012-10-06T04:30:00Z,26.2168,-96.4998,1015.41,11111222 
TABS,ioos:station:wmo:42045:1,2012-10-06T05:00:00Z,26.2168,-96.4998,1015.12,11111222 
TABS,ioos:station:wmo:42045:1,2012-10-06T05:30:00Z,26.2168,-96.4998,1014.89,11111222 
TABS,ioos:station:wmo:42045:1,2012-10-06T06:00:00Z,26.2168,-96.4998,1014.74,11111222 
TABS,ioos:station:wmo:42045:1,2012-10-06T06:30:00Z,26.2168,-96.4998,1014.64,11111222 
TABS,ioos:station:wmo:42045:1,2012-10-06T07:00:00Z,26.2168,-96.4998,1014.61,11111222 
TABS,ioos:station:wmo:42045:1,2012-10-06T07:30:00Z,26.2168,-96.4998,1014.42,11111222 
TABS,ioos:station:wmo:42045:1,2012-10-06T08:00:00Z,26.2168,-96.4998,1014.17,11111222 
TABS,ioos:station:wmo:42045:1,2012-10-06T08:30:00Z,26.2168,-96.4998,1014.02,11111222 
TABS,ioos:station:wmo:42045:1,2012-10-06T09:00:00Z,26.2168,-96.4998,1013.97,11111222 
TABS,ioos:station:wmo:42045:1,2012-10-06T09:30:00Z,26.2168,-96.4998,1014.02,11111222 
TABS,ioos:station:wmo:42045:1,2012-10-06T10:00:00Z,26.2168,-96.4998,1014.11,11111222 
TABS,ioos:station:wmo:42045:1,2012-10-06T10:30:00Z,26.2168,-96.4998,1014.32,11111222 
TABS,ioos:station:wmo:42045:1,2012-10-06T11:00:00Z,26.2168,-96.4998,1014.39,11111222 
TABS,ioos:station:wmo:42045:1,2012-10-06T11:30:00Z,26.2168,-96.4998,1014.48,11111222 
TABS,ioos:station:wmo:42045:1,2012-10-06T12:00:00Z,26.2168,-96.4998,1014.71,11111222 
TABS,ioos:station:wmo:42045:1,2012-10-06T12:30:00Z,26.2168,-96.4998,1014.63,11111222 
TABS,ioos:station:wmo:42045:1,2012-10-06T13:00:00Z,26.2168,-96.4998,1014.84,11111222 
TABS,ioos:station:wmo:42045:1,2012-10-06T13:30:00Z,26.2168,-96.4998,1015.09,11111222 
TABS,ioos:station:wmo:42045:1,2012-10-06T14:00:00Z,26.2168,-96.4998,1015.29,11111222 
TABS,ioos:station:wmo:42045:1,2012-10-06T14:30:00Z,26.2168,-96.4998,1015.61,11111222 
TABS,ioos:station:wmo:42045:1,2012-10-06T15:00:00Z,26.2168,-96.4998,1015.7,11111222 
TABS,ioos:station:wmo:42045:1,2012-10-06T15:30:00Z,26.2168,-96.4998,1015.66,11111222 
TABS,ioos:station:wmo:42045:1,2012-10-06T16:00:00Z,26.2168,-96.4998,1015.63,11111222 
TABS,ioos:station:wmo:42045:1,2012-10-06T16:30:00Z,26.2168,-96.4998,1015.51,11111222 
TABS,ioos:station:wmo:42045:1,2012-10-06T17:00:00Z,26.2168,-96.4998,1015.42,11111222 
TABS,ioos:station:wmo:42045:1,2012-10-06T17:30:00Z,26.2168,-96.4998,1015.18,11111222 
TABS,ioos:station:wmo:42045:1,2012-10-06T18:00:00Z,26.2168,-96.4998,1014.86,11111222 
TABS,ioos:station:wmo:42045:1,2012-10-06T18:30:00Z,26.2168,-96.4998,1014.48,11111222 